CHH7432 ZSPD-ZGGG

Flight info

Callsign CHH7432
Flight time 2h 8m
Altitude 36100
Route NXD W131 AKDIM A470 DUBGO W134 ELNEX A599 PLT W19 OLPAB
Aircraft A20N/M-SDE2E3FGHIRWXY/LB1

Departure

Time 2026-04-30 12:30
Airport Shanghai Pudong International Airport (ZSPD)

Arrival

Time 2026-04-30 14:38
Airport Guangzhou Baiyun International Airport (ZGGG)
Time Latitude Longitude Altitude Speed Heading
2026-04-30 11:48 31.13682 121.80643 22 ft 0 kts 162°
2026-04-30 12:11 31.13683 121.80643 23 ft 1 kts 162°
2026-04-30 12:11 31.13698 121.80637 27 ft 3 kts 162°
2026-04-30 12:11 31.13718 121.80630 23 ft 3 kts 162°
2026-04-30 12:11 31.13736 121.80623 23 ft 2 kts 162°
2026-04-30 12:12 31.13754 121.80618 25 ft 3 kts 183°
2026-04-30 12:12 31.13772 121.80623 24 ft 3 kts 221°
2026-04-30 12:12 31.13784 121.80641 26 ft 3 kts 247°
2026-04-30 12:12 31.13790 121.80659 28 ft 2 kts 252°
2026-04-30 12:13 31.13792 121.80667 28 ft 0 kts 252°
2026-04-30 12:21 31.13790 121.80661 28 ft 4 kts 252°
2026-04-30 12:21 31.13770 121.80589 22 ft 14 kts 252°
2026-04-30 12:21 31.13764 121.80461 24 ft 18 kts 309°
2026-04-30 12:21 31.13894 121.80404 22 ft 22 kts 342°
2026-04-30 12:22 31.13964 121.80378 22 ft 2 kts 342°
2026-04-30 12:22 31.14006 121.80362 23 ft 11 kts 342°
2026-04-30 12:22 31.14101 121.80327 22 ft 17 kts 342°
2026-04-30 12:22 31.14189 121.80263 23 ft 15 kts 276°
2026-04-30 12:23 31.14158 121.80137 23 ft 18 kts 252°
2026-04-30 12:23 31.14118 121.79992 25 ft 19 kts 252°
2026-04-30 12:23 31.14080 121.79855 25 ft 14 kts 252°
2026-04-30 12:23 31.14059 121.79777 23 ft 0 kts 252°
2026-04-30 12:24 31.14058 121.79776 23 ft 1 kts 252°
2026-04-30 12:24 31.14053 121.79755 25 ft 5 kts 252°
2026-04-30 12:24 31.14043 121.79696 24 ft 9 kts 261°
2026-04-30 12:24 31.14034 121.79613 23 ft 10 kts 297°
2026-04-30 12:25 31.14110 121.79579 25 ft 14 kts 342°
2026-04-30 12:25 31.14216 121.79538 24 ft 18 kts 342°
2026-04-30 12:25 31.14343 121.79491 22 ft 21 kts 342°
2026-04-30 12:25 31.14492 121.79435 22 ft 24 kts 342°
2026-04-30 12:26 31.14658 121.79373 25 ft 26 kts 342°
2026-04-30 12:26 31.14817 121.79312 23 ft 24 kts 342°
2026-04-30 12:26 31.14983 121.79249 24 ft 26 kts 341°
2026-04-30 12:26 31.15148 121.79187 22 ft 15 kts 342°
2026-04-30 12:27 31.15258 121.79146 26 ft 18 kts 342°
2026-04-30 12:27 31.15391 121.79097 26 ft 22 kts 342°
2026-04-30 12:27 31.15545 121.79038 22 ft 25 kts 342°
2026-04-30 12:27 31.15715 121.78973 22 ft 27 kts 342°
2026-04-30 12:28 31.15882 121.78910 22 ft 23 kts 342°
2026-04-30 12:28 31.16040 121.78850 23 ft 25 kts 342°
2026-04-30 12:28 31.16142 121.78807 25 ft 10 kts 320°
2026-04-30 12:28 31.16148 121.78752 23 ft 12 kts 252°
2026-04-30 12:29 31.16117 121.78647 24 ft 16 kts 251°
2026-04-30 12:29 31.16056 121.78625 22 ft 3 kts 162°
2026-04-30 12:29 31.16052 121.78627 22 ft 3 kts 162°
2026-04-30 12:30 31.16008 121.78643 22 ft 27 kts 162°
2026-04-30 12:30 31.15520 121.78828 22 ft 116 kts 162°
2026-04-30 12:30 31.14549 121.79191 202 ft 164 kts 162°
2026-04-30 12:30 31.13477 121.79584 1118 ft 160 kts 163°
2026-04-30 12:31 31.12406 121.79988 1887 ft 165 kts 163°
2026-04-30 12:31 31.11248 121.80419 2335 ft 184 kts 164°
2026-04-30 12:31 31.09970 121.80895 2731 ft 203 kts 163°
2026-04-30 12:31 31.08547 121.81424 3017 ft 226 kts 163°
2026-04-30 12:32 31.07004 121.81994 3517 ft 236 kts 165°
2026-04-30 12:32 31.05398 121.82487 4161 ft 241 kts 167°
2026-04-30 12:32 31.03760 121.82961 4800 ft 245 kts 167°
2026-04-30 12:32 31.02090 121.83456 5396 ft 250 kts 172°
2026-04-30 12:33 31.00375 121.83311 5985 ft 249 kts 203°
2026-04-30 12:33 30.98958 121.82218 6567 ft 246 kts 235°
2026-04-30 12:33 30.98217 121.80497 7542 ft 233 kts 257°
2026-04-30 12:33 30.97789 121.78698 8645 ft 228 kts 261°
2026-04-30 12:34 30.97397 121.76906 9688 ft 228 kts 261°
2026-04-30 12:34 30.96977 121.75117 10618 ft 230 kts 259°
2026-04-30 12:34 30.96527 121.73320 11511 ft 231 kts 262°
2026-04-30 12:34 30.96333 121.71485 12378 ft 227 kts 276°
2026-04-30 12:35 30.96535 121.69680 13316 ft 224 kts 286°
2026-04-30 12:35 30.96884 121.67902 14164 ft 226 kts 285°
2026-04-30 12:35 30.97219 121.66124 15031 ft 223 kts 285°
2026-04-30 12:35 30.97545 121.64362 15890 ft 222 kts 285°
2026-04-30 12:36 30.97868 121.62605 16736 ft 221 kts 285°
2026-04-30 12:36 30.98190 121.60858 17569 ft 220 kts 285°
2026-04-30 12:36 30.98511 121.59111 18388 ft 220 kts 285°
2026-04-30 12:36 30.98834 121.57362 19061 ft 222 kts 285°
2026-04-30 12:37 30.99164 121.55577 19332 ft 228 kts 284°
2026-04-30 12:37 30.99515 121.53681 19450 ft 250 kts 284°
2026-04-30 12:37 30.99899 121.51609 19572 ft 273 kts 284°
2026-04-30 12:37 31.00312 121.49366 19673 ft 294 kts 284°
2026-04-30 12:38 31.00754 121.46959 19780 ft 313 kts 284°
2026-04-30 12:38 31.01209 121.44478 19799 ft 319 kts 284°
2026-04-30 12:38 31.01676 121.41922 19798 ft 318 kts 284°
2026-04-30 12:38 31.02138 121.39401 19798 ft 318 kts 284°
2026-04-30 12:39 31.02600 121.36880 19799 ft 318 kts 284°
2026-04-30 12:39 31.03063 121.34354 19807 ft 319 kts 284°
2026-04-30 12:39 31.03530 121.31807 20174 ft 323 kts 284°
2026-04-30 12:39 31.03991 121.29285 20928 ft 322 kts 284°
2026-04-30 12:40 31.04467 121.26687 21592 ft 325 kts 284°
2026-04-30 12:40 31.04934 121.24129 22191 ft 329 kts 284°
2026-04-30 12:40 31.05418 121.21474 22819 ft 332 kts 283°
2026-04-30 12:40 31.05899 121.18830 23431 ft 335 kts 283°
2026-04-30 12:41 31.06357 121.16149 23967 ft 339 kts 280°
2026-04-30 12:41 31.06535 121.13433 24525 ft 342 kts 274°
2026-04-30 12:41 31.06378 121.10609 25064 ft 348 kts 266°
2026-04-30 12:41 31.05873 121.07826 25564 ft 354 kts 260°
2026-04-30 12:42 31.05174 121.05063 26087 ft 356 kts 260°
2026-04-30 12:42 31.04484 121.02288 26579 ft 358 kts 260°
2026-04-30 12:42 31.03803 120.99531 27070 ft 359 kts 260°
2026-04-30 12:42 31.03110 120.96726 27558 ft 361 kts 260°
2026-04-30 12:43 31.02412 120.93906 28021 ft 363 kts 260°
2026-04-30 12:43 31.01710 120.91078 28448 ft 365 kts 260°
2026-04-30 12:43 31.01003 120.88232 28894 ft 366 kts 260°
2026-04-30 12:43 31.00292 120.85373 29327 ft 368 kts 260°
2026-04-30 12:44 30.99577 120.82504 29731 ft 370 kts 260°
2026-04-30 12:44 30.98858 120.79621 30133 ft 371 kts 260°
2026-04-30 12:44 30.98136 120.76728 30477 ft 373 kts 260°
2026-04-30 12:44 30.97409 120.73817 30821 ft 375 kts 260°
2026-04-30 12:45 30.96677 120.70891 31147 ft 377 kts 260°
2026-04-30 12:45 30.95944 120.67964 31547 ft 376 kts 260°
2026-04-30 12:45 30.95211 120.65044 32005 ft 375 kts 260°
2026-04-30 12:45 30.94481 120.62138 32472 ft 373 kts 260°
2026-04-30 12:46 30.93755 120.59250 32922 ft 371 kts 260°
2026-04-30 12:46 30.93032 120.56376 33362 ft 369 kts 260°
2026-04-30 12:46 30.92313 120.53515 33789 ft 368 kts 260°
2026-04-30 12:46 30.91595 120.50665 34181 ft 366 kts 260°
2026-04-30 12:47 30.90831 120.47834 34489 ft 369 kts 256°
2026-04-30 12:47 30.89716 120.45107 34768 ft 378 kts 249°
2026-04-30 12:47 30.88200 120.42566 35052 ft 388 kts 240°
2026-04-30 12:47 30.86281 120.40283 35329 ft 401 kts 232°
2026-04-30 12:48 30.84011 120.38318 35617 ft 409 kts 227°
2026-04-30 12:48 30.81682 120.36421 35896 ft 408 kts 227°
2026-04-30 12:48 30.79363 120.34521 36092 ft 408 kts 227°
2026-04-30 12:48 30.77048 120.32621 36172 ft 406 kts 227°
2026-04-30 12:49 30.72443 120.28836 36199 ft 405 kts 228°
2026-04-30 12:49 30.67846 120.25060 36195 ft 404 kts 228°
2026-04-30 12:50 30.63289 120.21322 36199 ft 404 kts 228°
2026-04-30 12:50 30.58702 120.17565 36203 ft 403 kts 228°
2026-04-30 12:51 30.54123 120.13819 36200 ft 402 kts 228°
2026-04-30 12:51 30.49551 120.10084 36196 ft 402 kts 229°
2026-04-30 12:52 30.44983 120.06355 36197 ft 401 kts 229°
2026-04-30 12:52 30.40166 120.02920 36194 ft 410 kts 224°
2026-04-30 12:53 30.35225 119.99639 36197 ft 409 kts 224°
2026-04-30 12:53 30.30290 119.96355 36200 ft 409 kts 224°
2026-04-30 12:54 30.25367 119.93079 36202 ft 408 kts 224°
2026-04-30 12:54 30.20446 119.89808 36206 ft 408 kts 224°
2026-04-30 12:55 30.15517 119.86535 36213 ft 409 kts 224°
2026-04-30 12:55 30.10588 119.83267 36217 ft 409 kts 224°
2026-04-30 12:56 30.05651 119.79998 36209 ft 409 kts 224°
2026-04-30 12:56 30.00741 119.76718 36205 ft 407 kts 225°
2026-04-30 12:57 29.95887 119.73443 36212 ft 407 kts 224°
2026-04-30 12:57 29.90993 119.70150 36212 ft 408 kts 224°
2026-04-30 12:58 29.86096 119.66860 36210 ft 406 kts 225°
2026-04-30 12:58 29.81458 119.63304 36211 ft 400 kts 228°
2026-04-30 12:59 29.76846 119.59683 36228 ft 402 kts 228°
2026-04-30 12:59 29.72233 119.56080 36219 ft 400 kts 228°
2026-04-30 13:00 29.67613 119.52472 36220 ft 401 kts 227°
2026-04-30 13:00 29.63188 119.48672 36219 ft 390 kts 234°
2026-04-30 13:01 29.59468 119.44323 36221 ft 380 kts 240°
2026-04-30 13:01 29.55932 119.39784 36217 ft 382 kts 239°
2026-04-30 13:02 29.52376 119.35253 36219 ft 382 kts 239°
2026-04-30 13:02 29.48814 119.30716 36221 ft 383 kts 239°
2026-04-30 13:03 29.45239 119.26172 36219 ft 383 kts 239°
2026-04-30 13:03 29.41688 119.21660 36218 ft 384 kts 239°
2026-04-30 13:04 29.38107 119.17115 36228 ft 385 kts 239°
2026-04-30 13:04 29.34513 119.12560 36222 ft 385 kts 239°
2026-04-30 13:05 29.30923 119.08026 36213 ft 385 kts 238°
2026-04-30 13:06 29.25518 119.01207 36218 ft 387 kts 238°
2026-04-30 13:06 29.21895 118.96648 36222 ft 387 kts 238°
2026-04-30 13:07 29.18262 118.92082 36230 ft 388 kts 238°
2026-04-30 13:07 29.14609 118.87494 36236 ft 390 kts 238°
2026-04-30 13:08 29.10967 118.82928 36240 ft 392 kts 237°
2026-04-30 13:08 29.07287 118.78319 36240 ft 393 kts 237°
2026-04-30 13:09 29.03585 118.73686 36235 ft 394 kts 237°
2026-04-30 13:09 28.99904 118.69093 36238 ft 391 kts 237°
2026-04-30 13:10 28.96215 118.64481 36245 ft 394 kts 236°
2026-04-30 13:10 28.92523 118.59879 36239 ft 393 kts 236°
2026-04-30 13:11 28.88819 118.55266 36242 ft 394 kts 236°
2026-04-30 13:11 28.85129 118.50675 36244 ft 395 kts 236°
2026-04-30 13:12 28.81402 118.46042 36237 ft 396 kts 236°
2026-04-30 13:12 28.77678 118.41421 36239 ft 396 kts 236°
2026-04-30 13:13 28.75648 118.38905 36239 ft 396 kts 236°
2026-04-30 13:14 28.74783 118.37833 36242 ft 396 kts 236°
2026-04-30 13:15 28.69174 118.30888 36242 ft 397 kts 235°
2026-04-30 13:16 28.66057 118.27034 36240 ft 398 kts 235°
2026-04-30 13:16 28.61675 118.21621 36242 ft 398 kts 235°
2026-04-30 13:17 28.56668 118.15445 36241 ft 399 kts 235°
2026-04-30 13:18 28.50408 118.07736 36239 ft 399 kts 235°
2026-04-30 13:18 28.45379 118.01556 36243 ft 400 kts 235°
2026-04-30 13:19 28.41594 117.96907 36246 ft 401 kts 235°
2026-04-30 13:19 28.37740 117.92312 36243 ft 402 kts 234°
2026-04-30 13:20 28.33845 117.87743 36247 ft 403 kts 234°
2026-04-30 13:20 28.29952 117.83159 36247 ft 403 kts 234°
2026-04-30 13:21 28.26062 117.78577 36240 ft 403 kts 234°
2026-04-30 13:22 28.20216 117.71695 36242 ft 404 kts 233°
2026-04-30 13:22 28.14384 117.64842 36241 ft 404 kts 233°
2026-04-30 13:23 28.08512 117.57951 36243 ft 406 kts 233°
2026-04-30 13:24 28.00656 117.48754 36243 ft 406 kts 233°
2026-04-30 13:25 27.92778 117.39545 36256 ft 408 kts 232°
2026-04-30 13:26 27.82928 117.28056 36248 ft 411 kts 232°
2026-04-30 13:28 27.72974 117.16487 36245 ft 412 kts 232°
2026-04-30 13:28 27.66964 117.09518 36246 ft 412 kts 232°
2026-04-30 13:29 27.58967 117.00260 36248 ft 412 kts 232°
2026-04-30 13:31 27.49512 116.89316 36244 ft 413 kts 232°
2026-04-30 13:32 27.39558 116.77652 36245 ft 413 kts 232°
2026-04-30 13:33 27.31578 116.68341 36246 ft 413 kts 232°
2026-04-30 13:34 27.25608 116.61388 36245 ft 413 kts 232°
2026-04-30 13:35 27.17658 116.52043 36245 ft 413 kts 233°
2026-04-30 13:36 27.09896 116.42588 36245 ft 413 kts 232°
2026-04-30 13:36 27.04025 116.35491 36248 ft 414 kts 232°
2026-04-30 13:37 26.98143 116.28396 36254 ft 414 kts 232°
2026-04-30 13:38 26.92254 116.21302 36237 ft 415 kts 232°
2026-04-30 13:39 26.86618 116.14452 36251 ft 415 kts 232°
2026-04-30 13:40 26.80752 116.07305 36250 ft 416 kts 232°
2026-04-30 13:40 26.76837 116.02548 36250 ft 415 kts 232°
2026-04-30 13:41 26.72915 115.97788 36247 ft 416 kts 232°
2026-04-30 13:41 26.68992 115.93033 36244 ft 416 kts 232°
2026-04-30 13:42 26.65090 115.88309 36246 ft 416 kts 232°
2026-04-30 13:42 26.59195 115.81180 36241 ft 416 kts 232°
2026-04-30 13:43 26.55259 115.76427 36238 ft 417 kts 232°
2026-04-30 13:43 26.51325 115.71682 36239 ft 415 kts 232°
2026-04-30 13:44 26.47395 115.66947 36223 ft 416 kts 232°
2026-04-30 13:44 26.43460 115.62210 36225 ft 416 kts 232°
2026-04-30 13:45 26.37553 115.55111 36231 ft 417 kts 232°
2026-04-30 13:46 26.33627 115.50399 36232 ft 417 kts 232°
2026-04-30 13:46 26.29665 115.45647 36233 ft 418 kts 232°
2026-04-30 13:47 26.25695 115.40892 36237 ft 419 kts 232°
2026-04-30 13:47 26.21718 115.36134 36234 ft 420 kts 232°
2026-04-30 13:48 26.17737 115.31375 36238 ft 420 kts 232°
2026-04-30 13:48 26.13745 115.26608 36235 ft 421 kts 231°
2026-04-30 13:49 26.09747 115.21840 36236 ft 421 kts 231°
2026-04-30 13:49 26.05748 115.17076 36236 ft 421 kts 231°
2026-04-30 13:50 26.01764 115.12335 36236 ft 422 kts 231°
2026-04-30 13:50 25.95755 115.05193 36226 ft 421 kts 231°
2026-04-30 13:51 25.91749 115.00438 36225 ft 421 kts 231°
2026-04-30 13:51 25.87737 114.95680 36225 ft 422 kts 231°
2026-04-30 13:52 25.83654 114.90986 36225 ft 425 kts 225°
2026-04-30 13:52 25.78619 114.87388 36230 ft 438 kts 209°
2026-04-30 13:53 25.72734 114.85477 36228 ft 447 kts 198°
2026-04-30 13:53 25.66650 114.83978 36233 ft 448 kts 198°
2026-04-30 13:54 25.60566 114.82467 36237 ft 448 kts 198°
2026-04-30 13:54 25.54477 114.80956 36240 ft 448 kts 198°
2026-04-30 13:55 25.48388 114.79448 36238 ft 448 kts 198°
2026-04-30 13:55 25.42303 114.77943 36227 ft 447 kts 198°
2026-04-30 13:56 25.36280 114.76454 36222 ft 446 kts 198°
2026-04-30 13:56 25.30213 114.74956 36222 ft 446 kts 198°
2026-04-30 13:57 25.24141 114.73458 36224 ft 446 kts 198°
2026-04-30 13:57 25.18071 114.71962 36223 ft 447 kts 198°
2026-04-30 13:58 25.09006 114.69731 36224 ft 447 kts 198°
2026-04-30 13:59 25.02933 114.68238 36235 ft 447 kts 198°
2026-04-30 13:59 24.96852 114.66745 36217 ft 447 kts 198°
2026-04-30 14:00 24.90782 114.65256 35952 ft 447 kts 198°
2026-04-30 14:00 24.84704 114.63766 35470 ft 448 kts 198°
2026-04-30 14:00 24.81661 114.63017 35231 ft 449 kts 198°
2026-04-30 14:01 24.78607 114.62267 34996 ft 450 kts 198°
2026-04-30 14:01 24.75540 114.61513 34673 ft 452 kts 198°
2026-04-30 14:01 24.72469 114.60705 33993 ft 454 kts 201°
2026-04-30 14:01 24.69477 114.59557 32927 ft 457 kts 207°
2026-04-30 14:02 24.66622 114.58021 32109 ft 454 kts 213°
2026-04-30 14:02 24.63881 114.56276 31227 ft 456 kts 214°
2026-04-30 14:02 24.61172 114.54553 30437 ft 456 kts 213°
2026-04-30 14:02 24.58402 114.52800 29868 ft 450 kts 213°
2026-04-30 14:03 24.55752 114.51129 29572 ft 438 kts 213°
2026-04-30 14:03 24.53156 114.49496 29412 ft 422 kts 213°
2026-04-30 14:03 24.50648 114.47918 29261 ft 408 kts 213°
2026-04-30 14:03 24.48227 114.46393 29138 ft 394 kts 213°
2026-04-30 14:04 24.45930 114.44946 29010 ft 381 kts 214°
2026-04-30 14:04 24.43635 114.43501 28883 ft 367 kts 214°
2026-04-30 14:04 24.41459 114.42132 28777 ft 354 kts 214°
2026-04-30 14:04 24.39357 114.40810 28663 ft 342 kts 214°
2026-04-30 14:05 24.37331 114.39540 28549 ft 329 kts 214°
2026-04-30 14:05 24.35361 114.38305 28278 ft 323 kts 214°
2026-04-30 14:05 24.34076 114.37497 28011 ft 322 kts 214°
2026-04-30 14:05 24.32135 114.36277 27615 ft 319 kts 214°
2026-04-30 14:06 24.30214 114.35071 27236 ft 317 kts 214°
2026-04-30 14:06 24.26418 114.32692 26511 ft 312 kts 213°
2026-04-30 14:07 24.22691 114.30360 25796 ft 306 kts 213°
2026-04-30 14:07 24.20848 114.29207 25447 ft 304 kts 213°
2026-04-30 14:07 24.19018 114.28062 25110 ft 302 kts 213°
2026-04-30 14:08 24.15389 114.25792 24434 ft 298 kts 213°
2026-04-30 14:08 24.13597 114.24673 24116 ft 295 kts 213°
2026-04-30 14:08 24.10056 114.22458 23420 ft 290 kts 214°
2026-04-30 14:09 24.08462 114.21181 23024 ft 286 kts 225°
2026-04-30 14:09 24.07122 114.19601 22627 ft 282 kts 235°
2026-04-30 14:09 24.04851 114.16149 21885 ft 278 kts 236°
2026-04-30 14:10 24.03716 114.14448 21531 ft 276 kts 236°
2026-04-30 14:10 24.02584 114.12755 21167 ft 274 kts 236°
2026-04-30 14:10 24.01458 114.11071 20810 ft 273 kts 236°
2026-04-30 14:10 24.00340 114.09399 20464 ft 271 kts 236°
2026-04-30 14:11 23.99228 114.07735 20118 ft 270 kts 236°
2026-04-30 14:11 23.98125 114.06084 19778 ft 269 kts 236°
2026-04-30 14:11 23.97025 114.04439 19424 ft 267 kts 236°
2026-04-30 14:11 23.95941 114.02818 19091 ft 267 kts 236°
2026-04-30 14:12 23.94848 114.01183 18768 ft 266 kts 236°
2026-04-30 14:12 23.93755 113.99549 18431 ft 265 kts 236°
2026-04-30 14:12 23.92669 113.97927 18059 ft 264 kts 236°
2026-04-30 14:12 23.91589 113.96315 17732 ft 261 kts 236°
2026-04-30 14:13 23.90519 113.94719 17386 ft 260 kts 236°
2026-04-30 14:13 23.89455 113.93130 17031 ft 259 kts 236°
2026-04-30 14:13 23.88395 113.91549 16688 ft 257 kts 236°
2026-04-30 14:13 23.87343 113.89979 16349 ft 255 kts 236°
2026-04-30 14:14 23.86295 113.88417 16022 ft 254 kts 236°
2026-04-30 14:14 23.85255 113.86867 15701 ft 253 kts 236°
2026-04-30 14:14 23.84218 113.85322 15383 ft 251 kts 236°
2026-04-30 14:14 23.83186 113.83785 15065 ft 250 kts 236°
2026-04-30 14:15 23.82162 113.82260 14728 ft 249 kts 236°
2026-04-30 14:15 23.81141 113.80740 14436 ft 247 kts 235°
2026-04-30 14:15 23.80129 113.79234 14136 ft 245 kts 235°
2026-04-30 14:15 23.79133 113.77752 14006 ft 243 kts 235°
2026-04-30 14:16 23.78121 113.76246 13896 ft 246 kts 235°
2026-04-30 14:16 23.77112 113.74745 13779 ft 244 kts 235°
2026-04-30 14:16 23.76108 113.73251 13672 ft 244 kts 235°
2026-04-30 14:16 23.75105 113.71760 13576 ft 244 kts 235°
2026-04-30 14:17 23.74097 113.70262 13472 ft 244 kts 235°
2026-04-30 14:17 23.73092 113.68769 13364 ft 244 kts 235°
2026-04-30 14:17 23.72090 113.67281 13253 ft 243 kts 235°
2026-04-30 14:17 23.71086 113.65791 13132 ft 244 kts 235°
2026-04-30 14:18 23.70104 113.64333 13042 ft 243 kts 235°
2026-04-30 14:18 23.69104 113.62849 12937 ft 243 kts 235°
2026-04-30 14:18 23.67105 113.59886 12728 ft 241 kts 235°
2026-04-30 14:19 23.65107 113.56925 12515 ft 242 kts 235°
2026-04-30 14:19 23.64111 113.55449 12411 ft 241 kts 235°
2026-04-30 14:19 23.63115 113.53973 12303 ft 241 kts 235°
2026-04-30 14:20 23.62120 113.52500 12195 ft 241 kts 235°
2026-04-30 14:20 23.61127 113.51030 12082 ft 241 kts 235°
2026-04-30 14:20 23.59292 113.48034 11886 ft 240 kts 246°
2026-04-30 14:21 23.58706 113.46334 11781 ft 239 kts 252°
2026-04-30 14:21 23.58176 113.44632 11548 ft 241 kts 251°
2026-04-30 14:21 23.57064 113.41159 10857 ft 243 kts 251°
2026-04-30 14:22 23.56506 113.39428 10572 ft 241 kts 251°
2026-04-30 14:22 23.55405 113.36009 10012 ft 237 kts 251°
2026-04-30 14:22 23.54862 113.34324 9721 ft 235 kts 251°
2026-04-30 14:23 23.53786 113.30980 9121 ft 233 kts 251°
2026-04-30 14:23 23.52711 113.27643 8531 ft 233 kts 251°
2026-04-30 14:24 23.51643 113.24332 8017 ft 227 kts 251°
2026-04-30 14:24 23.51115 113.22696 7941 ft 233 kts 250°
2026-04-30 14:25 23.48845 113.20435 7906 ft 234 kts 193°
2026-04-30 14:25 23.45634 113.19774 7904 ft 234 kts 192°
2026-04-30 14:26 23.42429 113.19115 7904 ft 234 kts 192°
2026-04-30 14:26 23.40824 113.18778 7903 ft 234 kts 192°
2026-04-30 14:26 23.37636 113.18105 7903 ft 234 kts 192°
2026-04-30 14:27 23.36037 113.17767 7903 ft 234 kts 192°
2026-04-30 14:27 23.34434 113.17428 7836 ft 236 kts 192°
2026-04-30 14:27 23.32825 113.17088 7573 ft 234 kts 192°
2026-04-30 14:28 23.29662 113.16420 7003 ft 228 kts 192°
2026-04-30 14:28 23.28108 113.16093 6724 ft 226 kts 192°
2026-04-30 14:28 23.26590 113.15772 6447 ft 224 kts 192°
2026-04-30 14:28 23.25064 113.15451 6146 ft 222 kts 192°
2026-04-30 14:29 23.22049 113.14813 5555 ft 219 kts 191°
2026-04-30 14:29 23.19582 113.14291 5114 ft 214 kts 191°
2026-04-30 14:30 23.14834 113.13187 4258 ft 203 kts 170°
2026-04-30 14:31 23.12953 113.15079 3780 ft 192 kts 105°
2026-04-30 14:31 23.12300 113.17873 3286 ft 190 kts 104°
2026-04-30 14:31 23.12042 113.19255 3073 ft 186 kts 88°
2026-04-30 14:32 23.13395 113.21523 3000 ft 187 kts 44°
2026-04-30 14:32 23.14356 113.22465 3000 ft 186 kts 44°
2026-04-30 14:32 23.15320 113.23407 2998 ft 186 kts 44°
2026-04-30 14:33 23.16306 113.24311 3025 ft 185 kts 37°
2026-04-30 14:33 23.18688 113.25415 3001 ft 188 kts 18°
2026-04-30 14:33 23.19961 113.25769 3003 ft 189 kts 16°
2026-04-30 14:34 23.21231 113.26112 2999 ft 184 kts 16°
2026-04-30 14:34 23.22438 113.26439 2991 ft 179 kts 17°
2026-04-30 14:34 23.23650 113.26767 2810 ft 178 kts 17°
2026-04-30 14:34 23.24834 113.27087 2577 ft 170 kts 17°
2026-04-30 14:35 23.26620 113.27570 2217 ft 149 kts 17°
2026-04-30 14:35 23.27886 113.27913 1978 ft 135 kts 17°
2026-04-30 14:35 23.28778 113.28155 1804 ft 130 kts 17°
2026-04-30 14:36 23.29655 113.28392 1640 ft 130 kts 17°
2026-04-30 14:36 23.30528 113.28629 1448 ft 129 kts 17°
2026-04-30 14:36 23.31394 113.28864 1297 ft 131 kts 17°
2026-04-30 14:36 23.32263 113.29113 1166 ft 128 kts 16°
2026-04-30 14:37 23.33142 113.29357 1012 ft 129 kts 15°
2026-04-30 14:37 23.34019 113.29582 822 ft 131 kts 14°
2026-04-30 14:37 23.34905 113.29830 646 ft 132 kts 14°
2026-04-30 14:37 23.35790 113.30059 448 ft 129 kts 14°
2026-04-30 14:38 23.36649 113.30292 279 ft 127 kts 12°
2026-04-30 14:38 23.37511 113.30520 117 ft 127 kts 13°
2026-04-30 14:38 23.38334 113.30746 53 ft 112 kts 14°
2026-04-30 14:38 23.38823 113.30875 60 ft 29 kts 14°
2026-04-30 14:39 23.39013 113.30925 59 ft 29 kts 14°
2026-04-30 14:39 23.39216 113.30974 55 ft 31 kts
2026-04-30 14:39 23.39397 113.30939 56 ft 24 kts 346°
2026-04-30 14:40 23.39387 113.30823 54 ft 16 kts 194°
2026-04-30 14:40 23.39266 113.30790 51 ft 20 kts 193°
2026-04-30 14:40 23.39122 113.30751 56 ft 23 kts 194°
2026-04-30 14:40 23.38993 113.30718 56 ft 10 kts 193°
2026-04-30 14:41 23.38942 113.30697 51 ft 7 kts 226°
2026-04-30 14:41 23.38945 113.30629 58 ft 12 kts 285°
2026-04-30 14:41 23.38968 113.30529 52 ft 15 kts 271°
2026-04-30 14:41 23.38916 113.30493 53 ft 10 kts 189°
2026-04-30 14:42 23.38825 113.30470 54 ft 17 kts 194°
2026-04-30 14:42 23.38697 113.30436 57 ft 21 kts 194°
2026-04-30 14:42 23.38547 113.30396 54 ft 23 kts 193°
2026-04-30 14:42 23.38393 113.30354 54 ft 21 kts 194°
2026-04-30 14:43 23.38263 113.30319 53 ft 18 kts 194°
2026-04-30 14:43 23.38149 113.30288 54 ft 17 kts 194°
2026-04-30 14:43 23.38037 113.30259 52 ft 16 kts 194°
2026-04-30 14:43 23.37929 113.30229 55 ft 14 kts 194°
2026-04-30 14:44 23.37872 113.30169 52 ft 14 kts 277°
2026-04-30 14:44 23.37898 113.30054 57 ft 17 kts 284°
2026-04-30 14:44 23.37930 113.29914 54 ft 21 kts 284°
2026-04-30 14:44 23.37967 113.29752 58 ft 23 kts 284°
2026-04-30 14:45 23.38008 113.29575 58 ft 25 kts 283°
2026-04-30 14:45 23.38047 113.29399 53 ft 23 kts 284°
2026-04-30 14:45 23.38087 113.29229 51 ft 21 kts 284°
2026-04-30 14:45 23.38117 113.29101 55 ft 17 kts 284°
2026-04-30 14:46 23.38145 113.28974 55 ft 12 kts 284°
2026-04-30 14:46 23.38164 113.28890 56 ft 11 kts 284°
2026-04-30 14:46 23.38232 113.28872 54 ft 13 kts 15°
2026-04-30 14:46 23.38296 113.28890 54 ft 15 kts 14°
2026-04-30 14:47 23.38449 113.28930 56 ft 19 kts 14°
2026-04-30 14:47 23.38587 113.28967 55 ft 22 kts 14°
2026-04-30 14:47 23.38727 113.29005 57 ft 20 kts 13°
2026-04-30 14:47 23.38852 113.29039 56 ft 18 kts 14°
2026-04-30 14:48 23.38966 113.29071 55 ft 16 kts 12°
2026-04-30 14:48 23.39071 113.29099 57 ft 15 kts 14°
2026-04-30 14:48 23.39157 113.29124 54 ft 11 kts 26°
2026-04-30 14:48 23.39173 113.29209 56 ft 11 kts 91°
2026-04-30 14:49 23.39172 113.29279 58 ft 10 kts 91°
2026-04-30 14:49 23.39170 113.29357 58 ft 9 kts 98°
2026-04-30 14:49 23.39143 113.29376 55 ft 2 kts 172°
2026-04-30 14:49 23.39124 113.29376 56 ft 3 kts 180°
2026-04-30 14:50 23.39081 113.29376 53 ft 0 kts 181°